Fort Greely, AK

5:54 PM AKST on February 21, 2017 (GMT -0900)
Allen Army Air Field

Weather History for PABI - November, 2013

Change the Weather History Date:

Saturday, November 16, 2013

  Actual Average Record
Temperature  
Mean Temperature 12 °F -  
Max Temperature 16 °F 15 °F 25 °F (2000)
Min Temperature 8 °F 5 °F -32 °F (2003)
Degree Days  
Heating Degree Days 53    
Moisture  
Dew Point 9 °F    
Average Humidity 82    
Maximum Humidity 88    
Minimum Humidity 67    
Precipitation  
Precipitation 0.03 in - - ()
Sea Level Pressure  
Sea Level Pressure 30.18 in    
Wind  
Wind Speed 9 mph (WNW)    
Max Wind Speed 18 mph    
Max Gust Speed 25 mph    
Visibility 3 miles    
Events Fog , Snow    
Averages and records for this station are not official NWS values.
T = Trace of Precipitation, MM = Missing Value Source: NWS Daily Summary

Daily Weather History Graph

Daily Weather History Graph

Search for Another Location

Airport or City:

Trip Planner

Search our weather history database for the weather conditions in past years. The results will help you decide how hot, cold, wet, or windy it might be!

Date:

Astronomy

Nov. 16, 2013 Rise Set
Actual Time 9:15 AM AKST 3:39 PM AKST
Civil Twilight 8:14 AM AKST 4:40 PM AKST
Nautical Twilight 7:13 AM AKST 5:40 PM AKST
Astronomical Twilight 6:17 AM AKST 6:36 PM AKST
Moon 3:35 PM AKST (11/16) 8:02 AM AKST (11/16)
Length of Visible Light 8h 25m
Length of Day
6h 24m
Waxing Gibbous, 99% of the Moon is Illuminated
Nov 16
Waxing Gibbous
Nov 17
Full
Nov 25
Last Quarter
Dec 2
New
Dec 9
First Quarter

Hourly Weather History & Observations

Time (AKST) Temp. Windchill Dew Point Humidity Pressure Visibility Wind Dir Wind Speed Gust Speed Precip Events Conditions
12:53 AM 12.0 °F 1.5 °F 8.1 °F 84% 30.14 in 10.0 mi West 6.9 mph - 0.00 in   Overcast
1:53 AM 10.9 °F 2.9 °F 7.0 °F 84% 30.16 in 9.0 mi WNW 4.6 mph - 0.00 in   Overcast
2:53 AM 10.9 °F 2.9 °F 7.0 °F 84% 30.17 in 2.5 mi West 4.6 mph - 0.00 in Snow Light Snow
3:12 AM 10.4 °F -0.4 °F 6.8 °F 85% 30.05 in 3.0 mi West 6.9 mph - 0.00 in Snow Light Snow
3:46 AM 12.2 °F 0.7 °F 8.6 °F 85% 30.05 in 2.5 mi WSW 8.1 mph - 0.01 in Snow Light Snow
3:53 AM 12.9 °F 0.7 °F 9.0 °F 84% 30.17 in 2.0 mi WSW 9.2 mph - 0.01 in Snow Light Snow
4:27 AM 14.0 °F -0.2 °F 10.4 °F 86% 30.05 in 1.8 mi West 12.7 mph 21.9 mph 0.00 in Snow Light Snow
4:53 AM 15.1 °F -0.6 °F 10.9 °F 84% 30.17 in 1.0 mi WNW 16.1 mph - 0.00 in Snow Light Snow
5:23 AM 15.8 °F -0.6 °F 10.4 °F 79% 30.06 in 2.5 mi WNW 18.4 mph - 0.00 in Snow Light Snow
5:39 AM 15.8 °F 0.9 °F 10.4 °F 79% 30.06 in 3.0 mi WNW 15.0 mph - 0.00 in Snow Light Snow
5:53 AM 15.1 °F 1.8 °F 10.0 °F 80% 30.19 in 3.0 mi WNW 11.5 mph - 0.00 in Snow Light Snow
6:18 AM 15.8 °F 7.2 °F 10.4 °F 79% 30.06 in 2.5 mi West 5.8 mph - 0.00 in Snow Light Snow
6:41 AM 15.8 °F 5.1 °F 10.4 °F 79% 30.06 in 1.2 mi West 8.1 mph - 0.00 in Snow Light Snow
6:53 AM 15.1 °F 5.2 °F 10.9 °F 84% 30.19 in 1.2 mi West 6.9 mph - 0.00 in Snow Light Snow
7:01 AM 15.8 °F 5.1 °F 10.4 °F 79% 30.06 in 1.2 mi West 8.1 mph - 0.00 in Snow Light Snow
7:14 AM 15.8 °F 4.2 °F 10.4 °F 79% 30.07 in 1.8 mi West 9.2 mph - 0.00 in Snow Light Snow
7:53 AM 15.1 °F 6.4 °F 12.0 °F 88% 30.19 in 1.2 mi WSW 5.8 mph - 0.01 in Snow Light Snow
8:53 AM 15.1 °F 4.2 °F 12.0 °F 88% 30.19 in 1.0 mi West 8.1 mph - 0.01 in Snow Light Snow
9:33 AM 15.8 °F 3.4 °F 12.2 °F 86% 30.07 in 0.8 mi WNW 10.4 mph - 0.00 in Snow Light Snow
9:45 AM 15.8 °F 6.1 °F 12.2 °F 86% 30.07 in 0.5 mi West 6.9 mph - 0.00 in Fog , Snow Snow
9:53 AM 16.0 °F 7.4 °F 12.0 °F 84% 30.19 in 0.5 mi West 5.8 mph - 0.00 in Fog , Snow Snow
10:07 AM 15.8 °F 6.1 °F 12.2 °F 86% 30.07 in 0.8 mi West 6.9 mph - 0.01 in Snow Light Snow
10:23 AM 15.8 °F 3.4 °F 12.2 °F 86% 30.08 in 0.8 mi West 10.4 mph - 0.01 in Snow Light Snow
10:36 AM 15.8 °F 1.4 °F 10.4 °F 79% 30.08 in 1.2 mi West 13.8 mph - 0.01 in Snow Light Snow
10:53 AM 16.0 °F 1.7 °F 10.9 °F 81% 30.19 in 1.5 mi WNW 13.8 mph - 0.01 in Snow Light Snow
11:53 AM 16.0 °F 2.3 °F 10.9 °F 81% 30.21 in 1.2 mi WNW 12.7 mph 21.9 mph 0.00 in Snow Light Snow
12:11 PM 15.8 °F 1.4 °F 10.4 °F 79% 30.09 in 2.5 mi WNW 13.8 mph 21.9 mph 0.00 in Snow Light Snow
12:23 PM 15.8 °F 0.3 °F 10.4 °F 79% 30.09 in 1.8 mi WNW 16.1 mph 21.9 mph 0.00 in Snow Light Snow
12:53 PM 15.1 °F 0.5 °F 10.9 °F 84% 30.22 in 1.8 mi WNW 13.8 mph 25.3 mph 0.00 in Snow Light Snow
1:26 PM 15.8 °F 2.1 °F 10.4 °F 79% 30.11 in 0.8 mi WNW 12.7 mph - 0.00 in Snow Light Snow
1:53 PM 15.1 °F -0.6 °F 10.9 °F 84% 30.23 in 1.2 mi WNW 16.1 mph 23.0 mph 0.00 in Snow Light Snow
2:09 PM 15.8 °F 1.4 °F 10.4 °F 79% 30.11 in 2.0 mi WNW 13.8 mph - 0.00 in Snow Light Snow
2:17 PM 15.8 °F 1.4 °F 10.4 °F 79% 30.11 in 1.2 mi WNW 13.8 mph 23.0 mph 0.00 in Snow Light Snow
2:53 PM 15.1 °F -1.1 °F 9.0 °F 77% 30.25 in 3.0 mi WNW 17.3 mph 24.2 mph 0.00 in Snow Light Snow
3:01 PM 14.0 °F -2.0 °F 10.4 °F 86% 30.13 in 1.8 mi WNW 16.1 mph 23.0 mph 0.00 in Snow Light Snow
3:11 PM 14.0 °F -1.4 °F 8.6 °F 79% 30.14 in 3.0 mi WNW 15.0 mph - 0.00 in Snow Light Snow
3:53 PM 12.9 °F -3.4 °F 8.1 °F 81% 30.27 in 7.0 mi WNW 16.1 mph - 0.00 in Snow Light Snow
4:47 PM 12.2 °F -0.2 °F 8.6 °F 85% 30.17 in 2.5 mi WNW 9.2 mph - 0.00 in Snow Light Snow
4:48 PM 12.9 °F 1.6 °F 8.1 °F 81% 30.29 in 2.5 mi WNW 8.1 mph - 0.00 in Snow Light Snow
4:56 PM 12.2 °F 1.7 °F 8.6 °F 85% 30.17 in 4.0 mi WNW 6.9 mph - 0.00 in Snow Light Snow
5:53 PM 12.0 °F -2.7 °F 7.0 °F 80% 30.32 in 8.0 mi WNW 12.7 mph - 0.00 in Snow Light Snow
6:53 PM 12.0 °F -1.3 °F 7.0 °F 80% 30.34 in 8.0 mi NW 10.4 mph - 0.00 in Snow Light Snow
7:23 PM 10.4 °F -4.8 °F 6.8 °F 85% 30.22 in 1.8 mi NW 12.7 mph - 0.00 in Snow Light Snow
7:53 PM 10.9 °F -3.4 °F 7.0 °F 84% 30.36 in 1.8 mi NW 11.5 mph - 0.00 in Snow Light Snow
8:14 PM 10.4 °F -3.3 °F 6.8 °F 85% 30.23 in 2.5 mi WNW 10.4 mph - 0.00 in Snow Light Snow
8:53 PM 10.9 °F -1.8 °F 6.1 °F 81% 30.37 in 2.5 mi NW 9.2 mph - 0.00 in Snow Light Snow
9:23 PM 10.4 °F -1.5 °F 6.8 °F 85% 30.24 in 4.0 mi NW 8.1 mph - 0.00 in Snow Light Snow
9:53 PM 10.0 °F -1.9 °F 5.0 °F 80% 30.37 in 7.0 mi NW 8.1 mph - 0.00 in Snow Light Snow
10:53 PM 9.0 °F -0.9 °F 5.0 °F 84% 30.39 in 7.0 mi NW 5.8 mph - 0.00 in Snow Light Snow
11:45 PM 8.6 °F -3.7 °F 3.2 °F 79% 30.27 in 3.0 mi NW 8.1 mph - 0.00 in Snow Light Snow
11:53 PM 9.0 °F -2.2 °F 3.9 °F 80% 30.41 in 3.0 mi WNW 6.9 mph - 0.00 in Snow Light Snow
11:58 PM 8.6 °F -3.7 °F 3.2 °F 79% 30.28 in 2.5 mi WNW 8.1 mph - 0.00 in Snow Light Snow